Time,TemperatureF,DewpointF,PressureIn,WindDirection,WindDirectionDegrees,WindSpeedMPH,WindSpeedGustMPH,Humidity,HourlyPrecipIn,Conditions,Clouds,dailyrainin,SolarRadiationWatts/m^2,SoftwareType,DateUTC
2013-02-23 00:01:00,19.0,14.0,-100.00,East,81,0.0,3.0,79,0.00,,,0.00,0.000000,,2013-02-23 07:01:00,
2013-02-23 00:11:00,19.0,14.0,-100.00,East,81,0.0,3.0,79,0.00,,,0.00,0.000000,,2013-02-23 07:11:00,
2013-02-23 00:21:00,19.0,14.0,-100.00,East,81,0.0,3.0,79,0.00,,,0.00,0.000000,,2013-02-23 07:21:00,
2013-02-23 00:31:00,19.0,14.0,-100.00,East,81,0.0,3.0,79,0.00,,,0.00,0.000000,,2013-02-23 07:31:00,
2013-02-23 00:52:00,18.0,10.0,-100.00,SSE,157,3.0,4.0,69,0.00,,,0.00,0.000000,,2013-02-23 07:52:00,
2013-02-23 01:01:00,18.0,10.0,-100.00,SSE,157,3.0,4.0,69,0.00,,,0.00,0.000000,,2013-02-23 08:01:00,
2013-02-23 01:11:00,18.0,10.0,-100.00,SSE,157,3.0,4.0,69,0.00,,,0.00,0.000000,,2013-02-23 08:11:00,
2013-02-23 01:21:00,18.0,10.0,-100.00,SSE,157,3.0,4.0,69,0.00,,,0.00,0.000000,,2013-02-23 08:21:00,
2013-02-23 01:31:00,18.0,10.0,-100.00,SSE,157,3.0,4.0,69,0.00,,,0.00,0.000000,,2013-02-23 08:31:00,
2013-02-23 01:52:00,18.0,10.0,-100.00,SW,226,1.0,4.0,70,0.00,,,0.00,0.000000,,2013-02-23 08:52:00,
2013-02-23 02:01:00,18.0,10.0,-100.00,SW,226,1.0,4.0,70,0.00,,,0.00,0.000000,,2013-02-23 09:01:00,
2013-02-23 02:11:00,18.0,10.0,-100.00,SW,226,1.0,4.0,70,0.00,,,0.00,0.000000,,2013-02-23 09:11:00,
2013-02-23 02:21:00,18.0,10.0,-100.00,SW,226,1.0,4.0,70,0.00,,,0.00,0.000000,,2013-02-23 09:21:00,
2013-02-23 02:31:00,18.0,10.0,-100.00,SW,226,1.0,4.0,70,0.00,,,0.00,0.000000,,2013-02-23 09:31:00,
2013-02-23 02:52:00,16.0,8.0,-100.00,ENE,58,2.0,3.0,71,0.00,,,0.00,0.000000,,2013-02-23 09:52:00,
2013-02-23 03:01:00,16.0,8.0,-100.00,ENE,58,2.0,3.0,71,0.00,,,0.00,0.000000,,2013-02-23 10:01:00,
2013-02-23 03:11:00,16.0,8.0,-100.00,ENE,58,2.0,3.0,71,0.00,,,0.00,0.000000,,2013-02-23 10:11:00,
2013-02-23 03:21:00,16.0,8.0,-100.00,ENE,58,2.0,3.0,71,0.00,,,0.00,0.000000,,2013-02-23 10:21:00,
2013-02-23 03:31:00,16.0,8.0,-100.00,ENE,58,2.0,3.0,71,0.00,,,0.00,0.000000,,2013-02-23 10:31:00,
2013-02-23 03:52:00,17.0,8.0,-100.00,ESE,104,3.0,4.0,68,0.00,,,0.00,0.000000,,2013-02-23 10:52:00,
2013-02-23 04:02:00,17.0,8.0,-100.00,ESE,104,3.0,4.0,68,0.00,,,0.00,0.000000,,2013-02-23 11:02:00,
2013-02-23 04:11:00,17.0,8.0,-100.00,ESE,104,3.0,4.0,68,0.00,,,0.00,0.000000,,2013-02-23 11:11:00,
2013-02-23 04:21:00,17.0,8.0,-100.00,ESE,104,3.0,4.0,68,0.00,,,0.00,0.000000,,2013-02-23 11:21:00,
2013-02-23 04:32:00,17.0,8.0,-100.00,ESE,104,3.0,4.0,68,0.00,,,0.00,0.000000,,2013-02-23 11:32:00,
2013-02-23 04:52:00,16.0,6.0,-100.00,ESE,109,4.0,5.0,63,0.00,,,0.00,0.000000,,2013-02-23 11:52:00,
2013-02-23 05:01:00,16.0,6.0,-100.00,ESE,109,4.0,5.0,63,0.00,,,0.00,0.000000,,2013-02-23 12:01:00,
2013-02-23 05:11:00,16.0,6.0,-100.00,ESE,109,4.0,5.0,63,0.00,,,0.00,0.000000,,2013-02-23 12:11:00,
2013-02-23 05:21:00,16.0,6.0,-100.00,ESE,109,4.0,5.0,63,0.00,,,0.00,0.000000,,2013-02-23 12:21:00,
2013-02-23 05:32:00,16.0,6.0,-100.00,ESE,109,4.0,5.0,63,0.00,,,0.00,0.000000,,2013-02-23 12:32:00,
2013-02-23 05:52:00,15.0,10.0,-100.00,NNE,26,4.0,5.0,79,0.00,,,0.00,0.000000,,2013-02-23 12:52:00,
2013-02-23 06:01:00,15.0,10.0,-100.00,NNE,26,4.0,5.0,79,0.00,,,0.00,0.000000,,2013-02-23 13:01:00,
2013-02-23 06:11:00,15.0,10.0,-100.00,NNE,26,4.0,5.0,79,0.00,,,0.00,0.000000,,2013-02-23 13:11:00,
2013-02-23 06:22:00,15.0,10.0,-100.00,NNE,26,4.0,5.0,79,0.00,,,0.00,0.000000,,2013-02-23 13:22:00,
2013-02-23 06:31:00,15.0,10.0,-100.00,NNE,26,4.0,5.0,79,0.00,,,0.00,0.000000,,2013-02-23 13:31:00,
2013-02-23 06:52:00,14.0,6.0,-100.00,NE,54,4.0,6.0,71,0.00,,,0.00,0.000000,,2013-02-23 13:52:00,
2013-02-23 07:02:00,14.0,6.0,-100.00,NE,54,4.0,6.0,71,0.00,,,0.00,0.000000,,2013-02-23 14:02:00,
2013-02-23 07:11:00,14.0,6.0,-100.00,NE,54,4.0,6.0,71,0.00,,,0.00,0.000000,,2013-02-23 14:11:00,
2013-02-23 07:21:00,14.0,6.0,-100.00,NE,54,4.0,6.0,71,0.00,,,0.00,0.000000,,2013-02-23 14:21:00,
2013-02-23 07:32:00,14.0,6.0,-100.00,NE,54,4.0,6.0,71,0.00,,,0.00,0.000000,,2013-02-23 14:32:00,
2013-02-23 07:52:00,15.0,7.0,-100.00,ENE,70,5.0,8.0,70,0.00,,,0.00,11.000000,,2013-02-23 14:52:00,
2013-02-23 08:01:00,15.0,7.0,-100.00,ENE,70,5.0,8.0,70,0.00,,,0.00,11.000000,,2013-02-23 15:01:00,
2013-02-23 08:11:00,15.0,7.0,-100.00,ENE,70,5.0,8.0,70,0.00,,,0.00,11.000000,,2013-02-23 15:11:00,
2013-02-23 08:21:00,15.0,7.0,-100.00,ENE,70,5.0,8.0,70,0.00,,,0.00,11.000000,,2013-02-23 15:21:00,
2013-02-23 08:31:00,15.0,7.0,-100.00,ENE,70,5.0,8.0,70,0.00,,,0.00,11.000000,,2013-02-23 15:31:00,
2013-02-23 08:52:00,17.0,7.0,-100.00,NE,50,6.0,10.0,65,0.00,,,0.00,101.000000,,2013-02-23 15:52:00,
2013-02-23 09:01:00,17.0,7.0,-100.00,NE,50,6.0,10.0,65,0.00,,,0.00,101.000000,,2013-02-23 16:01:00,
2013-02-23 09:11:00,17.0,7.0,-100.00,NE,50,6.0,10.0,65,0.00,,,0.00,101.000000,,2013-02-23 16:11:00,
2013-02-23 09:21:00,17.0,7.0,-100.00,NE,50,6.0,10.0,65,0.00,,,0.00,101.000000,,2013-02-23 16:21:00,
2013-02-23 09:31:00,17.0,7.0,-100.00,NE,50,6.0,10.0,65,0.00,,,0.00,101.000000,,2013-02-23 16:31:00,
2013-02-23 09:52:00,17.0,11.0,-100.00,NE,38,5.0,8.0,77,0.00,,,0.00,174.000000,,2013-02-23 16:52:00,
2013-02-23 10:01:00,17.0,11.0,-100.00,NE,38,5.0,8.0,77,0.00,,,0.00,174.000000,,2013-02-23 17:01:00,
2013-02-23 10:11:00,17.0,11.0,-100.00,NE,38,5.0,8.0,77,0.00,,,0.00,174.000000,,2013-02-23 17:11:00,
2013-02-23 10:21:00,17.0,11.0,-100.00,NE,38,5.0,8.0,77,0.00,,,0.00,174.000000,,2013-02-23 17:21:00,
2013-02-23 10:31:00,17.0,11.0,-100.00,NE,38,5.0,8.0,77,0.00,,,0.00,174.000000,,2013-02-23 17:31:00,
2013-02-23 10:52:00,19.0,14.0,-100.00,NE,47,5.0,7.0,79,0.00,,,0.00,251.000000,,2013-02-23 17:52:00,
2013-02-23 11:01:00,19.0,14.0,-100.00,NE,47,5.0,7.0,79,0.00,,,0.00,251.000000,,2013-02-23 18:01:00,
2013-02-23 11:12:00,19.0,14.0,-100.00,NE,47,5.0,7.0,79,0.00,,,0.00,251.000000,,2013-02-23 18:12:00,
2013-02-23 11:21:00,19.0,14.0,-100.00,NE,47,5.0,7.0,79,0.00,,,0.00,251.000000,,2013-02-23 18:21:00,
2013-02-23 11:31:00,19.0,14.0,-100.00,NE,47,5.0,7.0,79,0.00,,,0.00,251.000000,,2013-02-23 18:31:00,
2013-02-23 11:52:00,21.0,14.0,-100.00,NE,41,4.0,9.0,74,0.00,,,-99.99,290.000000,,2013-02-23 18:52:00,
2013-02-23 12:01:00,21.0,14.0,-100.00,NE,41,4.0,9.0,74,0.00,,,-99.99,290.000000,,2013-02-23 19:01:00,
2013-02-23 12:11:00,21.0,14.0,-100.00,NE,41,4.0,9.0,74,0.00,,,-99.99,290.000000,,2013-02-23 19:11:00,
2013-02-23 12:21:00,21.0,14.0,-100.00,NE,41,4.0,9.0,74,0.00,,,-99.99,290.000000,,2013-02-23 19:21:00,
2013-02-23 12:32:00,21.0,14.0,-100.00,NE,41,4.0,9.0,74,0.00,,,-99.99,290.000000,,2013-02-23 19:32:00,
2013-02-23 12:52:00,27.0,15.0,-100.00,NE,43,4.0,9.0,60,0.00,,,0.00,682.000000,,2013-02-23 19:52:00,
2013-02-23 13:01:00,27.0,15.0,-100.00,NE,43,4.0,9.0,60,0.00,,,0.00,682.000000,,2013-02-23 20:01:00,
2013-02-23 13:11:00,27.0,15.0,-100.00,NE,43,4.0,9.0,60,0.00,,,0.00,682.000000,,2013-02-23 20:11:00,
2013-02-23 13:21:00,27.0,15.0,-100.00,NE,43,4.0,9.0,60,0.00,,,0.00,682.000000,,2013-02-23 20:21:00,
2013-02-23 13:31:00,27.0,15.0,-100.00,NE,43,4.0,9.0,60,0.00,,,0.00,682.000000,,2013-02-23 20:31:00,
2013-02-23 13:52:00,28.0,16.0,-100.00,ENE,58,6.0,11.0,59,0.00,,,0.00,748.000000,,2013-02-23 20:52:00,
2013-02-23 14:01:00,28.0,16.0,-100.00,ENE,58,6.0,11.0,59,0.00,,,0.00,748.000000,,2013-02-23 21:01:00,
2013-02-23 14:11:00,28.0,16.0,-100.00,ENE,58,6.0,11.0,59,0.00,,,0.00,748.000000,,2013-02-23 21:11:00,
2013-02-23 14:22:00,28.0,16.0,-100.00,ENE,58,6.0,11.0,59,0.00,,,0.00,748.000000,,2013-02-23 21:22:00,
2013-02-23 14:31:00,28.0,16.0,-100.00,ENE,58,6.0,11.0,59,0.00,,,0.00,748.000000,,2013-02-23 21:31:00,
2013-02-23 14:52:00,27.0,15.0,-100.00,NE,46,3.0,12.0,60,0.00,,,0.00,569.000000,,2013-02-23 21:52:00,
2013-02-23 15:01:00,27.0,15.0,-100.00,NE,46,3.0,12.0,60,0.00,,,0.00,569.000000,,2013-02-23 22:01:00,
2013-02-23 15:21:00,27.0,15.0,-100.00,NE,46,3.0,12.0,60,0.00,,,0.00,569.000000,,2013-02-23 22:21:00,
2013-02-23 15:31:00,27.0,15.0,-100.00,NE,46,3.0,12.0,60,0.00,,,0.00,569.000000,,2013-02-23 22:31:00,
2013-02-23 15:52:00,27.0,20.0,-100.00,SSE,161,8.0,26.0,73,0.00,,,0.00,101.000000,,2013-02-23 22:52:00,
2013-02-23 16:01:00,27.0,20.0,-100.00,SSE,161,8.0,26.0,73,0.00,,,0.00,101.000000,,2013-02-23 23:01:00,
2013-02-23 16:11:00,27.0,20.0,-100.00,SSE,161,8.0,26.0,73,0.00,,,0.00,101.000000,,2013-02-23 23:11:00,
2013-02-23 16:21:00,27.0,20.0,-100.00,SSE,161,8.0,26.0,73,0.00,,,0.00,101.000000,,2013-02-23 23:21:00,
2013-02-23 16:31:00,27.0,20.0,-100.00,SSE,161,8.0,26.0,73,0.00,,,0.00,101.000000,,2013-02-23 23:31:00,
2013-02-23 16:52:00,26.0,23.0,-100.00,WNW,286,5.0,13.0,89,0.00,,,0.00,112.000000,,2013-02-23 23:52:00,
2013-02-23 17:01:00,26.0,23.0,-100.00,WNW,286,5.0,13.0,89,0.00,,,0.00,112.000000,,2013-02-24 00:01:00,
2013-02-23 17:11:00,26.0,23.0,-100.00,WNW,286,5.0,13.0,89,0.00,,,0.00,112.000000,,2013-02-24 00:11:00,
2013-02-23 17:22:00,26.0,23.0,-100.00,WNW,286,5.0,13.0,89,0.00,,,0.00,112.000000,,2013-02-24 00:22:00,
2013-02-23 17:31:00,26.0,23.0,-100.00,WNW,286,5.0,13.0,89,0.00,,,0.00,112.000000,,2013-02-24 00:31:00,
2013-02-23 17:52:00,24.0,22.0,-100.00,WNW,299,5.0,8.0,91,0.00,,,0.00,72.000000,,2013-02-24 00:52:00,
2013-02-23 18:01:00,24.0,22.0,-100.00,WNW,299,5.0,8.0,91,0.00,,,0.00,72.000000,,2013-02-24 01:01:00,
2013-02-23 18:11:00,24.0,22.0,-100.00,WNW,299,5.0,8.0,91,0.00,,,0.00,72.000000,,2013-02-24 01:11:00,
2013-02-23 18:22:00,24.0,22.0,-100.00,WNW,299,5.0,8.0,91,0.00,,,0.00,72.000000,,2013-02-24 01:22:00,
2013-02-23 18:31:00,24.0,22.0,-100.00,WNW,299,5.0,8.0,91,0.00,,,0.00,72.000000,,2013-02-24 01:31:00,
2013-02-23 18:52:00,24.0,23.0,-100.00,WNW,291,4.0,7.0,95,0.00,,,0.00,4.000000,,2013-02-24 01:52:00,
2013-02-23 19:01:00,24.0,23.0,-100.00,WNW,291,4.0,7.0,95,0.00,,,0.00,4.000000,,2013-02-24 02:01:00,
2013-02-23 19:11:00,24.0,23.0,-100.00,WNW,291,4.0,7.0,95,0.00,,,0.00,4.000000,,2013-02-24 02:11:00,
2013-02-23 19:21:00,24.0,23.0,-100.00,WNW,291,4.0,7.0,95,0.00,,,0.00,4.000000,,2013-02-24 02:21:00,
2013-02-23 19:31:00,24.0,23.0,-100.00,WNW,291,4.0,7.0,95,0.00,,,0.00,4.000000,,2013-02-24 02:31:00,
2013-02-23 19:52:00,24.0,23.0,-100.00,WNW,295,6.0,10.0,95,0.00,,,0.00,0.000000,,2013-02-24 02:52:00,
2013-02-23 20:01:00,24.0,23.0,-100.00,WNW,295,6.0,10.0,95,0.00,,,0.00,0.000000,,2013-02-24 03:01:00,
2013-02-23 20:11:00,24.0,23.0,-100.00,WNW,295,6.0,10.0,95,0.00,,,0.00,0.000000,,2013-02-24 03:11:00,
2013-02-23 20:21:00,24.0,23.0,-100.00,WNW,295,6.0,10.0,95,0.00,,,0.00,0.000000,,2013-02-24 03:21:00,
2013-02-23 20:31:00,24.0,23.0,-100.00,WNW,295,6.0,10.0,95,0.00,,,0.00,0.000000,,2013-02-24 03:31:00,
2013-02-23 20:52:00,23.0,22.0,-100.00,SW,235,5.0,9.0,95,0.00,,,0.00,0.000000,,2013-02-24 03:52:00,
2013-02-23 21:01:00,23.0,22.0,-100.00,SW,235,5.0,9.0,95,0.00,,,0.00,0.000000,,2013-02-24 04:01:00,
2013-02-23 21:11:00,23.0,22.0,-100.00,SW,235,5.0,9.0,95,0.00,,,0.00,0.000000,,2013-02-24 04:11:00,
2013-02-23 21:21:00,23.0,22.0,-100.00,SW,235,5.0,9.0,95,0.00,,,0.00,0.000000,,2013-02-24 04:21:00,
2013-02-23 21:31:00,23.0,22.0,-100.00,SW,235,5.0,9.0,95,0.00,,,0.00,0.000000,,2013-02-24 04:31:00,
2013-02-23 21:52:00,23.0,22.0,-100.00,WSW,251,9.0,13.0,95,0.00,,,0.00,0.000000,,2013-02-24 04:52:00,
2013-02-23 22:01:00,23.0,22.0,-100.00,WSW,251,9.0,13.0,95,0.00,,,0.00,0.000000,,2013-02-24 05:01:00,
2013-02-23 22:11:00,23.0,22.0,-100.00,WSW,251,9.0,13.0,95,0.00,,,0.00,0.000000,,2013-02-24 05:11:00,
2013-02-23 22:21:00,23.0,22.0,-100.00,WSW,251,9.0,13.0,95,0.00,,,0.00,0.000000,,2013-02-24 05:21:00,
2013-02-23 22:32:00,23.0,22.0,-100.00,WSW,251,9.0,13.0,95,0.00,,,0.00,0.000000,,2013-02-24 05:32:00,
2013-02-23 22:52:00,21.0,19.0,-100.00,WNW,285,7.0,15.0,93,0.00,,,0.00,0.000000,,2013-02-24 05:52:00,
2013-02-23 23:01:00,21.0,19.0,-100.00,WNW,285,7.0,15.0,93,0.00,,,0.00,0.000000,,2013-02-24 06:01:00,
2013-02-23 23:11:00,21.0,19.0,-100.00,WNW,285,7.0,15.0,93,0.00,,,0.00,0.000000,,2013-02-24 06:11:00,
2013-02-23 23:21:00,21.0,19.0,-100.00,WNW,285,7.0,15.0,93,0.00,,,0.00,0.000000,,2013-02-24 06:21:00,
2013-02-23 23:31:00,21.0,19.0,-100.00,WNW,285,7.0,15.0,93,0.00,,,0.00,0.000000,,2013-02-24 06:31:00,
2013-02-23 23:52:00,18.0,16.0,-100.00,West,266,6.0,13.0,92,0.00,,,0.00,0.000000,,2013-02-24 06:52:00,